User: anonymous   Login
Location: Caltech
(34.1382°N, 118.1253°W)
Time: 15:02:14
(UTC-07:00)
Language:

Cosmos 1937 Rocket - Orbit

View from above orbital plane
View from above orbital plane
View from above satellite
View from above satellite

Ground track
Ground track

The orbit data is extracted from the following two-line orbital elements,

1 19039U 88029B   15089.22350668  .00000400  00000-0  13990-3 0  9993
2 19039 074.0503 350.8068 0023564 002.3165 168.6630 14.38181067414402
Epoch (UTC): 30 March 2015 05:21:50
Eccentricity: 0.0023564
inclination: 74.0503°
perigee height: 747 km
apogee height: 781 km
right ascension of ascending node: 350.8068°
argument of perigee: 2.3165°
revolutions per day: 14.38181067
mean anomaly at epoch: 168.6630°
orbit number at epoch: 41440

The dashed part of the orbit path shows where the satellite is in the earth's shadow,  

DLR